カタログに戻る

KUIPER-00521

運用中通信LEO
NORAD 68891·PAYLOAD·🇺🇸 United States

打ち上げ Apr 28, 2026 から Cape Canaveral Space Force Station

Loading…

次のパス (今後24時間)

TLE

最新Source: CelesTrak SupGP

元期: Sep 14, 2026, 18:24 UTC

1 68891C 26095AD  26257.76730324 -.00010189  00000+0 -13337-2 0  2574
2 68891  51.9019 195.8064 0000795  91.6721 151.2653 14.79943609    15

AllMySatでKUIPER-00521をリアルタイム追跡

Download on the App Store